TimeEDT,TemperatureF,Dew PointF,Humidity,Sea Level PressureIn,VisibilityMPH,Wind Direction,Wind SpeedMPH,Gust SpeedMPH,PrecipitationIn,Events,Conditions,WindDirDegrees,DateUTC
12:53 AM,75.9,72.0,87,30.06,9.0,Calm,Calm,-,N/A,,Clear,0,2013-05-11 04:53:00
1:53 AM,75.0,71.1,87,30.05,10.0,East,3.5,-,N/A,,Clear,100,2013-05-11 05:53:00
2:53 AM,73.0,70.0,90,30.04,10.0,East,3.5,-,N/A,,Clear,100,2013-05-11 06:53:00
3:53 AM,72.0,69.1,91,30.03,10.0,ENE,3.5,-,N/A,,Clear,70,2013-05-11 07:53:00
4:53 AM,72.0,69.1,91,30.03,10.0,Calm,Calm,-,N/A,,Partly Cloudy,0,2013-05-11 08:53:00
5:53 AM,72.0,70.0,93,30.01,9.0,SE,3.5,-,N/A,,Clear,130,2013-05-11 09:53:00
6:53 AM,73.0,71.1,93,30.03,7.0,East,4.6,-,N/A,,Clear,100,2013-05-11 10:53:00
7:53 AM,73.9,72.0,93,30.05,8.0,ESE,4.6,-,N/A,,Clear,110,2013-05-11 11:53:00
8:53 AM,78.1,73.0,84,30.06,10.0,SE,3.5,-,N/A,,Clear,130,2013-05-11 12:53:00
9:53 AM,82.0,73.9,76,30.06,10.0,SSE,9.2,-,N/A,,Scattered Clouds,150,2013-05-11 13:53:00
10:53 AM,84.9,70.0,61,30.06,10.0,South,9.2,-,N/A,,Scattered Clouds,170,2013-05-11 14:53:00
11:53 AM,84.0,71.1,65,30.06,10.0,SSW,12.7,-,N/A,,Scattered Clouds,210,2013-05-11 15:53:00
12:53 PM,86.0,72.0,63,30.04,10.0,SSW,12.7,-,N/A,,Scattered Clouds,200,2013-05-11 16:53:00
1:53 PM,86.0,71.1,61,30.04,10.0,SSW,15.0,-,N/A,,Clear,210,2013-05-11 17:53:00
2:53 PM,86.0,73.0,65,30.02,10.0,SSW,13.8,-,N/A,,Clear,200,2013-05-11 18:53:00
3:53 PM,86.0,73.9,67,30.01,10.0,SW,16.1,-,N/A,,Clear,220,2013-05-11 19:53:00
4:53 PM,84.0,73.9,72,30.01,10.0,WSW,15.0,-,N/A,,Partly Cloudy,240,2013-05-11 20:53:00
6:53 PM,82.0,73.9,76,30.01,10.0,SW,8.1,-,N/A,,Partly Cloudy,220,2013-05-11 22:53:00
7:53 PM,80.1,73.0,79,30.03,10.0,SW,9.2,27.6,N/A,,Partly Cloudy,230,2013-05-11 23:53:00
8:53 PM,79.0,73.0,82,30.03,10.0,SSW,5.8,-,N/A,,Clear,200,2013-05-12 00:53:00
9:53 PM,79.0,73.0,82,30.04,10.0,South,3.5,-,N/A,,Clear,190,2013-05-12 01:53:00
10:53 PM,78.1,73.0,84,30.05,10.0,Calm,Calm,-,N/A,,Clear,0,2013-05-12 02:53:00
11:53 PM,77.0,73.0,88,30.05,10.0,SSW,3.5,-,N/A,,Clear,200,2013-05-12 03:53:00